Location: Hurstbourne Priors
(51.2000°N, 1.3667°W)
Time: 22:08:10
(UTC+00:00)

Altair - Pass Details

Date: 11 April 2021
Orbit: 1501 x 1683 km, 47.2° (Epoch: 13 May)

Event Time Altitude Azimuth Distance (km) Brightness Sun altitude
Rises 06:41:02 0° 193° (SSW) 4,832 10.0 12.0°
Reaches altitude 10° 06:45:04 10° 179° (S) 3,819 9.7 12.6°
Maximum altitude 06:51:57 23° 133° (SE) 2,904 9.9 13.7°
Drops below altitude 10° 06:58:40 10° 87° (E) 3,727 12.0 14.7°
Sets 07:02:30 0° 73° (ENE) 4,688 11.4 15.3°
